Showing default

AZERSPACE 2/INTELSAT 38, 43632

Orbit data source: Space-Track

AZERSPACE 2/INTELSAT 38, 43632 is a payload satellite owned by Azerkosmos (AZ) in GEO that was launched on Tue, 25 Sep 2018 UTC via an ARIANE 5ECA launch vehicle from the French Guiana (FRGUI). Payload-class satellites include a variety of spacecraft equipped with specific instruments for various scientific and technological missions. These include communications satellites like Starlink; space stations such as the ISS; scientific satellites like the Hubble; Earth observation satellites from companies like Planet Labs, Umbra, and HawkEye 360; GPS; miniature CubeSats for education and research; and military/defense satellites.

Not visible in the next 10 days
Identifier
43632, 2018-074A
Orbit
GEO
Last TLE update
11 hours ago
Origin
Manufacturer
Maxar SSL
Mission
Operational Civil Communications
Bus & Motor
SSL-1300, R-4D
Mass
3,500 kg wet, ~2,000 kg dry
Launch date (UTC)
2018-09-25 (7 years ago)
Launch vehicle
ARIANE 5ECA
Launch site
French Guiana (FRGUI)
Object type
Payload
Rocket body
Debris
Shape & HBR
Box + 2 Pan, 27 m
Radar Cross Section
36.085 m², Large (>1 m²)

Expand to show TLE details & history

TLE from 11 hours ago
0 AZERSPACE 2/INTELSAT 38
1 43632U 18074A   25182.71898598  .00000140  00000-0  00000-0 0  9996
2 43632   0.0216  28.0401 0001552  73.7381 122.1739  1.00270499 24931
Epoch: 2025-07-01T17:15Z
TLE epoch observation values (Epoch: 2025-07-01T17:15:20.388Z)
Latitude
-0.01303°
Longitude
45.13367°
Altitude
35,789.95 km
Speed
3.074 km/s
True Right ascension
14h 55m 54s
True Declination
0° 00' 47"
Sunlit
Object was in daylight at epoch
Visualization orbit readout
Latitude
0.0079°
Longitude
-142.88307°
Altitude
35,783.69 km
Speed
3.075 km/s
Apparent Right ascension
02h 35m 51s
Apparent Declination
-4° 59' 55"
Sunlit
Object is in daylight
Visualization observer readout
Local Sidereal Time
16:22:58
Azimuth
41.699° NE
Elevation
-47.563°
Doppler factor
1
Orbital elements
Apogee altitude
35,794.57 km
Perigee altitude
35,781.482 km
Semi-major axis
42,166.163 km
Eccentricity
0.00016
Inclination
0.0216°
RAAN
28.0401°
Arg. of periapsis
73.7381°
True anomaly
Unknown
Mean anomaly
122.1739°
Eccentric anomaly
Unknown
Mean motion
0.25067 °/min
Orbital period
1,436.17 mins
BSTAR
0
Loading historical data...
43632 neighbors
Loading maneuver chart data...
Loading SW <> Apogee altitude chart data...
Loading historical data...
Loading historical data...
Loading historical data...
Loading historical data...
Loading historical data...
Loading historical data...
Loading historical data...
Other satellites on launch #74 in the year 2018 (2018-09-25 UTC)

AZERSPACE 2/INTELSAT 38 Visibility

Observer location: undefined°, undefined°

AZERSPACE 2/INTELSAT 38 is likely not visible in the next few days
Span
Click to sort rows by Start time (UTC) header in descending order
Start Az.
Max El. time (UTC)
Max El. Az.
Max El.
End time (UTC)
End Az.
|